Location: Cassano d�Adda
(45.5333°N, 9.5167°E)
Time: 18:20:05
(UTC+00:00)

FengYun 1-2 T - Pass Details

Date: 08 December 2019
Orbit: 847 x 880 km, 98.7° (Epoch: 23 January)

Event Time Altitude Azimuth Distance (km) Brightness Sun altitude
Rises 17:22:02 0° 161° (SSE) 3,396 7.3 -17.4°
Reaches altitude 10° 17:24:23 10° 160° (SSE) 2,464 6.6 -17.8°
Maximum altitude 17:29:51 82° 73° (ENE) 862 4.1 -18.7°
Drops below altitude 10° 17:35:23 10° 347° (NNW) 2,489 6.6 -19.7°
Sets 17:37:46 0° 347° (NNW) 3,432 7.4 -20.1°
